| time (UTC) | temp C | wind direction | speed KPH | gust KPH | rain 1hr cm | rain 24hr cm | rain mn cm | humidity % | barometer mb |
| 20260503224841 | 7 | 250 | 9.7 | 0.0 | 0.00 | 0.00 | 0.00 | 66 | 1019.0 |
| 20260503223353 | 7 | 250 | 9.7 | 0.0 | 0.00 | 0.00 | 0.00 | 66 | 1019.0 |
| 20260503221858 | 7 | 240 | 9.7 | 0.0 | 0.00 | 0.00 | 0.00 | 66 | 1020.0 |
| 20260503220423 | 7 | 240 | 9.7 | 0.0 | 0.00 | 0.00 | 0.00 | 66 | 1020.0 |
| 20260503214848 | 7 | 250 | 8.0 | 0.0 | 0.00 | 0.00 | 0.00 | 71 | 1020.0 |
| 20260503213341 | 7 | 250 | 8.0 | 0.0 | 0.00 | 0.00 | 0.00 | 71 | 1020.0 |
| 20260503211842 | 7 | 240 | 8.0 | 0.0 | 0.00 | 0.00 | 0.00 | 71 | 1020.0 |
| 20260503210341 | 7 | 240 | 8.0 | 0.0 | 0.00 | 0.00 | 0.00 | 71 | 1020.0 |
| 20260503204848 | 7 | 240 | 9.7 | 0.0 | 0.00 | 0.00 | 0.00 | 66 | 1020.0 |
| 20260503203501 | 7 | 240 | 9.7 | 0.0 | 0.00 | 0.00 | 0.00 | 66 | 1020.0 |
| 20260503201842 | 7 | 240 | 11.3 | 0.0 | 0.00 | 0.00 | 0.00 | 66 | 1020.0 |
| 20260503200351 | 7 | 240 | 11.3 | 0.0 | 0.00 | 0.00 | 0.00 | 66 | 1020.0 |
| 20260503194907 | 8 | 250 | 11.3 | 0.0 | 0.00 | 0.00 | 0.00 | 62 | 1020.0 |
| 20260503193503 | 8 | 250 | 11.3 | 0.0 | 0.00 | 0.00 | 0.00 | 62 | 1020.0 |
| 20260503191842 | 8 | 240 | 12.9 | 0.0 | 0.00 | 0.00 | 0.00 | 62 | 1020.0 |
| 20260503190341 | 8 | 240 | 12.9 | 0.0 | 0.00 | 0.00 | 0.00 | 62 | 1020.0 |
| 20260503185001 | 10 | 250 | 11.3 | 0.0 | 0.00 | 0.00 | 0.00 | 62 | 1020.0 |
| 20260503183341 | 10 | 250 | 11.3 | 0.0 | 0.00 | 0.00 | 0.00 | 62 | 1020.0 |
| 20260503181841 | 10 | 240 | 11.3 | 0.0 | 0.00 | 0.00 | 0.00 | 58 | 1020.0 |
| 20260503180341 | 10 | 240 | 11.3 | 0.0 | 0.00 | 0.00 | 0.00 | 58 | 1020.0 |
| 20260503174901 | 11 | 230 | 11.3 | 0.0 | 0.00 | 0.00 | 0.00 | 54 | 1020.0 |
| 20260503173406 | 11 | 230 | 11.3 | 0.0 | 0.00 | 0.00 | 0.00 | 54 | 1020.0 |
| 20260503171841 | 12 | 220 | 12.9 | 0.0 | 0.00 | 0.00 | 0.00 | 47 | 1019.0 |
| 20260503170342 | 12 | 220 | 12.9 | 0.0 | 0.00 | 0.00 | 0.00 | 47 | 1019.0 |
| 20260503150341 | 16 | 3.2 | 0.0 | 0.00 | 0.00 | 0.00 | 34 | 1020.0 | |
| 20260503130342 | 13 | 180 | 9.7 | 0.0 | 0.00 | 0.00 | 0.00 | 39 | 1021.0 |
| 20260503110402 | 13 | 160 | 9.7 | 0.0 | 0.00 | 0.00 | 0.00 | 36 | 1022.0 |
| 20260503090402 | 12 | 120 | 11.3 | 0.0 | 0.00 | 0.00 | 0.00 | 41 | 1023.0 |
| 20260503080352 | 12 | 120 | 14.5 | 0.0 | 0.00 | 0.00 | 0.00 | 47 | 1023.0 |
| 20260503071840 | 11 | 70 | 11.3 | 0.0 | 0.00 | 0.00 | 0.00 | 62 | 1023.0 |
| 20260503070342 | 11 | 70 | 11.3 | 0.0 | 0.00 | 0.00 | 0.00 | 62 | 1023.0 |
| 20260503060341 | 8 | 50 | 11.3 | 0.0 | 0.00 | 0.00 | 0.00 | 71 | 1023.0 |
| 20260503054841 | 7 | 30 | 11.3 | 0.0 | 0.00 | 0.00 | 0.00 | 87 | 1023.0 |
| 20260503053341 | 7 | 30 | 11.3 | 0.0 | 0.00 | 0.00 | 0.00 | 87 | 1023.0 |
| 20260503051841 | 7 | 360 | 8.0 | 0.0 | 0.00 | 0.00 | 0.00 | 87 | 1023.0 |
| 20260503050341 | 7 | 360 | 8.0 | 0.0 | 0.00 | 0.00 | 0.00 | 87 | 1023.0 |
| 20260503044841 | 5 | 340 | 8.0 | 0.0 | 0.00 | 0.00 | 0.00 | 93 | 1022.0 |
| 20260503043342 | 5 | 340 | 8.0 | 0.0 | 0.00 | 0.00 | 0.00 | 93 | 1022.0 |
| 20260503041841 | 3 | 340 | 4.8 | 0.0 | 0.00 | 0.00 | 0.00 | 93 | 1022.0 |
| 20260503040404 | 3 | 340 | 4.8 | 0.0 | 0.00 | 0.00 | 0.00 | 93 | 1022.0 |
| 20260503034843 | 3 | 360 | 8.0 | 0.0 | 0.00 | 0.00 | 0.00 | 93 | 1022.0 |
| 20260503033341 | 3 | 360 | 8.0 | 0.0 | 0.00 | 0.00 | 0.00 | 93 | 1022.0 |
| 20260503031841 | 2 | 330 | 3.2 | 0.0 | 0.00 | 0.00 | 0.00 | 100 | 1022.0 |
| 20260503030341 | 2 | 330 | 3.2 | 0.0 | 0.00 | 0.00 | 0.00 | 100 | 1022.0 |
| 20260503024856 | 3 | 340 | 4.8 | 0.0 | 0.00 | 0.00 | 0.00 | 93 | 1022.0 |
| 20260503023342 | 3 | 340 | 4.8 | 0.0 | 0.00 | 0.00 | 0.00 | 93 | 1022.0 |
| 20260503021841 | 3 | 350 | 11.3 | 0.0 | 0.00 | 0.00 | 0.00 | 100 | 1022.0 |
| 20260503020341 | 3 | 350 | 11.3 | 0.0 | 0.00 | 0.00 | 0.00 | 100 | 1022.0 |
| 20260503014841 | 5 | 350 | 11.3 | 0.0 | 0.00 | 0.00 | 0.00 | 93 | 1022.0 |
| 20260503013341 | 5 | 350 | 11.3 | 0.0 | 0.00 | 0.00 | 0.00 | 93 | 1022.0 |
| 20260503011841 | 6 | 350 | 11.3 | 0.0 | 0.00 | 0.00 | 0.00 | 87 | 1022.0 |
| 20260503010342 | 6 | 350 | 11.3 | 0.0 | 0.00 | 0.00 | 0.00 | 87 | 1022.0 |
| 20260503004841 | 6 | 350 | 8.0 | 0.0 | 0.00 | 0.00 | 0.00 | 87 | 1022.0 |
| 20260503003341 | 6 | 350 | 8.0 | 0.0 | 0.00 | 0.00 | 0.00 | 87 | 1022.0 |
| 20260503001841 | 6 | 20 | 8.0 | 0.0 | 0.00 | 0.00 | 0.00 | 93 | 1022.0 |
| 20260503000341 | 6 | 20 | 8.0 | 0.0 | 0.00 | 0.00 | 0.00 | 93 | 1022.0 |
| 20260502234841 | 6 | 320 | 8.0 | 0.0 | 0.00 | 0.00 | 0.00 | 93 | 1022.0 |
| 20260502233341 | 6 | 320 | 8.0 | 0.0 | 0.00 | 0.00 | 0.00 | 93 | 1022.0 |
| 20260502231841 | 6 | 10 | 4.8 | 0.0 | 0.00 | 0.00 | 0.00 | 93 | 1023.0 |
| 20260502230342 | 6 | 10 | 4.8 | 0.0 | 0.00 | 0.00 | 0.00 | 93 | 1023.0 |